Wind_Speed
15 15 15 16 18 19 19 19 19 19 20 19 19 19 16 13 14 13 13 13 13 12 11 12 14 13 11 10 10 9 10 10 10 10 11 12 11 10 9 9 10 11 11 11 11 11 12 14 14 14 14 13 12 12 13 15 18 21 22 22 21 17 14 14 11 10 14 13 10 12 13 12 11 11 12 11 9 8 7 6 6 6 7 7 7
16 17 18 18 20 21 20 19 19 19 21 20 17 17 15 13 14 15 13 13 12 11 12 13 12 11 10 9 9 10 10 10 10 10 10 12 11 10 9 9 10 10 9 10 10 9 10 12 12 13 13 12 11 10 10 11 13 18 22 24 25 23 18 16 13 12 15 15 13 14 14 12 11 11 12 12 10 8 7 6 5 5 5 4 4
15 16 17 18 19 21 19 18 18 19 20 18 14 13 14 14 16 16 14 13 13 12 12 13 12 11 11 10 9 10 10 10 10 10 10 11 11 10 9 9 8 8 8 8 8 7 7 9 10 10 10 10 9 8 8 8 9 13 19 24 26 25 21 18 13 13 16 16 14 15 15 13 11 10 10 10 9 8 7 6 5 5 5 4 4
17 18 19 20 22 22 20 19 20 19 18 15 12 13 15 17 18 17 15 14 15 13 12 13 14 13 12 11 10 10 11 11 10 10 10 10 10 9 8 8 7 7 7 6 5 4 4 5 6 7 7 8 8 8 7 7 7 9 14 20 23 22 21 19 14 11 16 18 16 17 16 14 12 11 10 9 8 8 7 6 6 8 8 6 5
21 22 22 25 26 25 23 22 23 22 20 15 12 15 18 18 19 17 15 15 15 13 13 14 15 14 13 13 12 11 12 11 10 10 10 9 8 8 8 7 6 5 5 5 4 3 3 4 4 4 5 7 8 8 8 8 7 8 10 14 18 19 20 18 14 12 14 18 19 18 17 15 14 13 12 11 10 9 8 7 8 10 10 7 6
24 25 26 29 29 27 25 24 23 22 20 16 14 17 20 19 19 18 16 16 16 14 13 15 15 15 14 13 13 12 12 11 11 10 10 9 9 9 9 8 7 7 6 6 4 3 3 4 5 5 4 5 6 7 7 8 8 9 10 12 16 18 18 16 14 12 13 17 19 18 18 17 15 13 11 12 13 11 9 9 10 11 9 7 6
26 28 30 30 28 25 25 25 23 19 14 13 14 18 20 20 19 18 17 17 17 15 14 14 13 14 15 15 14 13 12 11 11 11 10 9 9 11 11 10 10 10 9 8 6 4 4 4 6 6 6 6 6 6 6 7 8 10 11 12 15 16 16 15 14 13 13 15 17 17 17 15 14 12 11 12 13 12 13 14 13 10 8 7 6
27 29 31 30 27 26 27 25 24 18 12 12 14 17 20 21 21 20 19 18 18 16 15 14 13 14 15 15 15 14 14 13 12 12 12 12 11 12 13 13 13 12 11 10 9 8 8 7 8 8 8 7 7 7 7 7 9 10 11 11 12 14 15 15 14 14 14 16 16 15 14 13 12 12 12 13 14 14 14 15 13 11 9 8 6
24 25 28 28 26 28 28 26 25 20 16 16 17 19 22 23 22 20 20 19 17 16 15 14 14 15 16 16 16 16 17 16 15 14 14 15 15 14 14 15 15 14 12 12 11 12 11 11 10 10 10 10 9 8 8 7 8 10 12 13 13 13 15 15 15 15 16 16 15 13 13 13 13 13 15 16 16 15 15 13 12 10 8 6 4
17 17 19 20 19 22 25 25 25 23 21 21 20 18 19 21 19 17 17 17 16 16 16 16 16 17 17 18 18 19 19 19 18 17 16 17 18 18 17 16 17 16 15 14 14 15 15 14 13 13 13 12 12 11 10 9 8 9 11 13 13 13 13 14 15 16 16 18 16 14 13 14 14 15 17 17 16 15 14 12 10 8 5 3 2
15 15 14 13 13 16 19 20 20 20 21 21 19 17 18 18 16 14 14 13 13 14 16 16 16 17 19 19 19 20 21 21 21 20 19 19 20 20 19 19 19 19 18 18 17 17 17 17 17 16 15 15 14 14 14 13 11 10 11 12 13 13 12 13 14 15 16 17 17 16 16 16 16 16 17 17 15 13 11 9 7 4 1 1 1
19 17 15 13 11 11 13 14 13 13 14 14 13 13 16 16 13 11 11 10 10 10 11 12 13 15 16 16 16 17 19 21 23 23 23 22 22 22 22 22 22 21 21 21 21 20 19 19 19 18 18 17 17 17 17 16 16 15 14 15 15 15 15 13 13 14 15 16 17 18 18 17 17 18 17 16 15 12 9 7 4 1 2 3 2
27 24 22 20 17 15 15 14 13 11 9 9 9 10 11 11 10 8 9 9 8 7 6 6 6 8 9 9 10 11 12 14 18 21 23 23 23 24 24 24 24 24 24 24 23 22 22 21 21 21 20 20 20 20 20 19 19 19 18 18 18 18 17 16 15 15 16 17 18 19 19 19 19 18 16 14 13 11 7 4 1 1 2 3 2
31 30 28 27 26 24 23 23 21 16 12 12 12 11 10 8 7 6 6 6 5 4 3 2 2 2 4 5 6 7 8 10 12 15 18 19 20 22 23 24 24 25 25 25 24 24 23 23 24 23 23 22 23 23 23 22 21 21 21 21 20 18 17 16 16 15 15 15 16 17 17 17 17 16 15 12 10 8 5 3 1 1 1 0 1
32 31 31 30 29 29 28 27 26 23 20 18 18 16 14 12 9 7 6 5 4 3 2 0 1 3 3 4 6 7 8 10 11 13 15 16 17 19 20 22 23 24 25 25 25 25 25 25 25 25 24 23 23 24 25 24 23 23 23 23 21 18 17 16 16 15 14 12 12 12 13 12 12 13 13 11 8 6 4 3 2 2 2 3 3
32 31 31 30 29 28 27 27 26 25 23 22 21 20 18 16 14 12 10 9 8 7 5 3 3 3 5 6 8 9 9 10 12 14 15 17 18 19 20 21 23 24 25 26 26 26 25 25 25 25 24 23 24 25 25 25 25 24 25 24 22 19 18 16 15 14 14 12 10 10 11 12 11 11 11 9 7 5 4 3 3 3 5 5 4
30 30 30 28 28 26 25 25 24 23 23 22 21 20 19 17 16 13 12 12 10 9 9 7 6 5 4 5 7 9 10 11 12 13 14 16 18 19 20 22 23 24 25 25 25 25 25 25 25 25 25 25 25 25 24 25 26 25 25 25 22 20 18 16 14 14 14 13 12 12 13 14 12 11 10 8 6 5 4 3 4 5 5 5 4
28 29 28 26 25 24 23 23 23 22 21 21 20 18 17 17 16 14 13 12 11 10 9 8 8 7 6 7 7 8 9 9 11 13 14 15 17 19 20 21 22 23 24 24 24 24 25 25 26 26 26 26 26 25 24 25 26 26 26 25 22 19 18 16 13 13 14 14 15 15 15 14 12 10 8 7 5 4 4 4 5 5 5 5 5
26 26 25 24 23 21 21 21 21 21 20 19 18 17 16 15 14 13 13 12 11 11 10 9 9 9 9 9 9 9 10 9 9 11 13 15 16 19 20 21 22 23 24 24 24 24 25 26 27 28 28 28 27 26 24 24 26 27 27 26 22 19 18 17 16 15 15 15 16 16 15 13 11 10 8 7 6 5 5 4 4 4 5 5 4
23 22 21 21 21 20 19 19 19 19 19 18 17 16 15 15 14 14 13 13 12 11 11 10 10 9 9 9 10 10 12 12 11 11 12 13 15 17 21 24 24 24 25 26 25 25 25 26 27 28 29 28 28 27 25 24 26 28 29 27 24 20 19 18 17 16 15 15 15 15 13 12 11 10 9 8 7 6 5 5 4 4 5 4 4
18 18 18 19 20 19 19 19 18 18 18 16 16 16 16 16 16 15 15 14 13 13 12 12 10 9 9 9 9 10 12 13 13 13 14 13 13 14 19 24 26 27 27 26 26 25 26 27 28 28 28 28 28 27 26 24 25 28 30 28 23 19 19 19 18 16 16 15 15 14 12 12 11 10 9 8 7 6 6 5 5 4 3 3 2
16 16 17 18 19 19 19 18 18 18 17 17 17 17 17 17 16 16 16 15 15 15 15 14 14 13 11 11 11 11 12 13 14 15 15 15 15 15 16 20 24 27 28 26 26 26 26 27 28 28 27 28 27 26 25 24 25 28 29 26 22 19 19 19 19 18 17 16 15 14 12 12 11 10 9 8 8 7 6 5 4 3 2 1 1
14 15 17 18 19 19 18 18 18 18 18 17 17 17 17 17 17 17 17 17 16 16 16 16 16 16 15 14 13 12 12 12 13 14 14 15 16 17 18 18 19 22 25 25 25 25 26 26 27 28 28 28 27 26 25 25 26 28 27 26 23 20 19 20 20 19 18 17 16 15 13 12 12 11 10 10 9 7 6 5 4 2 0 2 3
15 16 18 18 19 19 19 19 19 19 18 18 17 17 17 17 17 17 17 17 17 17 17 17 17 18 18 17 16 14 13 12 12 12 13 14 15 17 18 18 17 19 22 22 22 22 23 24 25 27 29 28 28 28 27 27 29 29 28 26 23 20 22 23 22 21 20 18 17 16 14 13 13 13 12 11 9 8 6 5 3 1 2 4 5
17 17 18 18 18 18 18 18 18 18 18 18 18 18 18 17 17 17 17 17 17 17 18 18 18 18 19 19 19 18 16 15 12 12 13 13 14 14 15 16 16 17 18 19 20 21 22 23 23 24 26 27 28 28 27 28 29 28 26 25 22 22 25 25 24 23 21 19 18 17 16 15 13 13 12 10 9 7 5 3 1 2 3 5 6
17 17 17 16 16 16 17 17 17 16 15 15 15 15 15 15 15 15 15 15 15 16 16 17 18 18 19 19 20 20 19 18 16 14 15 15 14 14 13 14 14 14 14 15 18 20 20 20 20 20 21 23 25 23 21 22 23 21 20 22 23 25 26 26 25 23 21 19 18 18 18 16 14 12 11 9 8 6 4 1 1 2 4 5 6
16 16 15 14 14 14 15 15 14 14 13 13 13 13 13 13 13 13 13 14 14 15 15 16 17 18 19 20 20 21 21 20 19 18 18 18 17 15 14 13 13 14 13 12 13 16 16 15 16 16 15 15 15 16 18 19 18 17 18 21 23 25 25 24 23 21 20 19 19 19 18 16 13 12 10 8 6 5 3 2 2 3 3 5 7
14 14 13 12 13 13 13 13 13 13 14 14 13 13 13 13 13 12 11 12 13 14 15 16 16 17 19 20 21 22 22 21 20 19 19 20 20 19 17 15 13 13 13 12 13 14 13 11 10 12 13 11 9 12 18 21 21 21 21 21 22 22 22 20 19 19 19 19 19 18 16 14 12 11 10 8 6 4 3 2 2 3 3 5 7
12 12 11 12 12 12 12 13 14 15 15 15 14 13 13 13 13 13 12 11 11 12 14 17 18 18 19 20 20 22 22 21 20 19 19 20 21 21 20 18 14 12 14 16 17 15 11 8 12 16 17 16 14 14 17 20 23 24 22 20 19 19 18 18 18 19 19 18 17 15 14 13 13 11 9 7 5 4 3 2 2 2 3 5 7
11 11 11 12 12 12 13 14 15 15 15 15 15 14 14 13 12 13 13 12 11 13 15 18 18 18 19 19 18 19 20 21 21 20 20 20 21 21 21 19 16 14 16 18 17 14 11 14 18 20 22 23 23 21 19 20 22 24 22 20 20 19 19 19 19 19 18 15 14 14 14 14 13 11 8 6 5 4 3 1 1 2 3 5 7
11 11 11 11 11 12 14 14 14 14 15 16 16 17 17 16 15 13 12 12 14 15 15 15 15 14 16 17 17 17 18 20 20 21 21 21 21 20 20 19 16 15 17 18 16 14 16 19 21 22 23 24 25 26 25 24 23 24 24 23 22 21 21 20 19 18 17 15 14 13 13 12 11 9 7 5 4 3 2 1 1 2 3 5 9
11 11 11 10 10 11 12 12 13 14 15 16 17 18 19 19 19 18 16 15 16 16 15 15 15 14 14 16 17 18 20 20 20 20 21 21 20 20 20 20 19 17 16 16 15 16 18 22 24 24 25 26 27 28 28 26 25 27 28 26 24 22 20 20 18 16 15 13 12 11 11 10 10 8 6 5 4 3 2 1 1 2 3 5 9
11 11 11 10 11 11 9 9 11 14 16 16 17 17 17 17 18 20 20 19 18 17 17 17 18 17 16 16 17 19 21 21 20 20 20 19 19 19 19 19 19 17 15 15 17 17 19 22 24 26 28 29 30 30 29 29 30 30 28 26 24 22 20 19 18 16 13 11 10 11 11 11 10 8 6 5 4 2 1 1 1 2 3 6 8
11 11 11 11 11 9 8 9 12 14 15 15 16 16 15 15 16 18 21 22 22 22 21 20 18 18 17 16 16 17 18 18 18 18 18 17 16 17 17 17 17 15 14 16 18 20 21 23 25 27 29 30 31 31 31 31 31 29 25 23 23 22 21 20 18 15 13 12 11 11 11 11 9 7 5 4 2 1 1 1 1 2 3 5 8
11 11 10 10 9 8 8 11 13 13 13 14 15 15 15 15 15 16 17 19 21 22 23 22 20 18 17 15 14 14 14 14 14 14 15 15 14 15 15 15 15 14 16 19 21 22 23 25 26 28 29 30 31 32 32 32 30 27 23 22 22 21 21 19 17 15 14 13 12 12 11 9 7 4 3 2 2 2 2 1 1 2 4 6 9
9 10 10 9 8 8 10 11 12 12 12 13 14 14 14 13 13 13 14 15 17 20 22 21 19 17 15 14 14 13 12 12 13 13 13 13 14 14 15 16 17 18 20 22 22 22 23 25 27 28 30 31 31 31 29 28 26 24 23 22 22 22 21 19 18 17 16 14 13 12 10 7 5 3 2 2 3 3 3 2 1 3 5 8 9
7 8 8 8 7 8 9 10 10 10 11 13 14 14 13 12 11 11 12 13 14 17 19 20 19 19 18 16 13 12 12 12 13 13 14 14 14 14 14 16 18 19 21 22 21 20 19 21 24 27 30 31 31 29 27 24 23 24 23 23 23 23 22 21 20 18 16 14 12 10 7 5 4 2 2 3 4 5 4 3 3 4 5 6 8
6 7 7 7 6 6 7 8 9 10 12 14 15 14 13 12 12 11 11 12 14 16 18 19 19 19 19 18 15 13 12 12 12 12 11 10 11 11 12 14 16 17 18 20 20 18 17 17 20 23 26 28 28 26 25 25 26 26 25 23 23 23 23 22 20 17 14 13 12 9 6 5 4 3 3 5 7 6 4 3 4 5 5 6 8
6 7 7 6 4 5 5 6 8 10 13 15 16 14 13 12 12 12 12 14 17 18 18 18 18 17 17 17 16 15 14 12 12 12 12 11 10 8 8 11 13 14 15 16 16 17 16 17 18 20 22 24 25 24 24 25 26 26 24 23 24 24 23 21 19 16 14 13 10 8 6 5 5 5 7 9 9 6 4 3 4 6 7 9 10
7 8 7 5 3 3 4 5 7 9 12 13 15 14 12 12 12 12 13 15 17 17 17 17 17 15 15 15 16 15 14 13 11 10 11 12 11 7 5 6 8 10 10 11 12 13 13 14 16 19 21 22 23 23 23 23 22 21 21 23 25 24 22 20 18 16 14 11 9 7 6 6 7 8 10 9 6 5 4 3 5 7 8 9 11
9 9 7 5 3 2 3 3 5 8 10 12 14 13 12 11 11 12 12 13 15 15 15 15 15 14 13 12 12 12 12 12 11 10 10 11 11 8 6 4 5 6 7 8 9 11 12 14 17 20 20 20 21 23 23 22 20 19 21 23 23 21 20 19 17 15 12 10 8 7 7 7 8 10 9 6 4 4 3 5 7 8 7 7 9
9 9 6 5 4 4 3 2 4 7 10 12 12 12 11 11 11 11 11 12 13 13 13 12 12 11 10 9 9 9 10 11 12 12 12 12 12 10 8 5 4 3 3 6 8 10 12 15 18 20 19 19 21 23 24 23 21 21 22 21 20 19 19 18 15 13 11 9 7 7 8 8 9 9 7 5 5 4 3 6 7 7 7 7 7
9 8 4 3 4 4 3 2 3 7 10 12 11 11 11 11 10 10 10 10 11 11 10 10 10 9 9 9 8 9 10 12 14 15 15 15 14 13 11 9 6 3 3 5 7 9 12 15 19 20 21 21 21 22 22 21 21 21 20 18 18 18 18 16 13 11 8 7 7 8 8 8 9 8 6 5 4 3 5 7 7 6 7 7 7
8 6 2 2 3 3 2 3 5 7 10 10 9 10 11 10 9 9 9 9 9 9 8 8 9 9 10 11 11 12 14 16 17 18 18 17 17 16 14 13 11 9 9 10 10 12 15 19 22 24 25 24 22 20 18 17 17 17 16 16 17 17 15 12 10 8 6 6 7 8 8 9 9 7 5 4 3 3 7 8 7 6 7 8 8
6 5 2 2 2 2 3 4 6 8 8 7 7 9 10 9 7 8 8 7 8 8 8 8 9 9 11 12 13 15 18 20 22 22 22 21 21 19 17 16 15 14 16 17 18 19 20 21 22 22 22 21 19 17 15 14 14 14 15 15 16 14 11 9 7 6 6 6 6 8 9 10 8 6 4 3 1 3 7 9 8 6 6 7 9
4 4 2 1 1 2 3 5 7 9 9 7 6 7 9 7 6 7 7 7 7 8 8 9 10 10 11 13 14 15 17 19 21 22 22 23 24 24 23 22 21 20 21 22 22 22 21 20 20 20 20 18 17 16 16 15 14 14 13 12 11 10 9 8 8 7 6 6 6 8 10 9 7 4 3 2 1 1 5 9 9 8 7 8 10
3 3 2 1 1 2 3 5 7 9 9 8 5 6 6 5 5 6 7 7 8 9 9 10 11 11 12 13 14 15 16 16 16 16 16 17 18 20 21 22 23 22 22 22 22 21 20 20 19 19 19 18 17 16 15 14 13 12 11 10 10 10 10 9 8 7 7 7 7 9 9 7 4 3 1 1 1 2 4 8 10 10 9 9 12
5 2 1 2 2 2 2 4 5 7 8 8 6 5 5 4 4 6 7 7 7 8 9 10 10 10 11 12 13 13 14 14 14 14 14 15 15 16 17 19 20 20 20 20 20 19 19 19 17 17 16 16 15 14 14 13 12 11 11 11 11 10 9 9 8 8 8 8 9 8 7 5 3 2 0 0 1 2 4 6 7 9 9 9 10
7 3 1 2 3 3 2 2 3 5 6 7 5 4 4 4 4 5 5 6 6 7 7 8 9 9 9 10 10 10 11 12 13 13 14 14 15 16 16 18 18 19 19 19 18 17 17 16 14 14 13 12 12 12 12 12 12 11 11 11 11 10 9 9 9 9 8 8 8 7 5 4 3 2 0 1 1 1 3 3 4 8 9 9 9
10 6 3 3 4 4 3 2 2 3 4 5 6 5 3 3 4 5 5 4 5 5 6 7 8 8 8 8 9 9 9 9 10 11 11 12 12 13 14 15 16 16 16 17 16 15 14 13 12 11 10 10 10 11 11 11 11 11 11 11 10 10 10 10 9 9 8 8 7 6 5 3 2 1 1 1 1 1 2 2 3 6 8 9 9
12 9 6 5 6 5 4 3 2 1 1 3 5 5 3 2 3 4 4 4 4 4 5 6 7 7 7 7 7 7 7 8 8 8 8 9 10 11 12 12 13 13 13 13 13 12 11 10 10 10 10 10 10 10 10 10 10 10 10 10 10 10 10 10 9 8 8 7 5 4 3 2 1 1 1 1 0 1 2 3 4 5 7 8 9
Wind_Direction
158 163 166 165 167 171 173 179 186 188 189 191 192 188 181 181 186 190 193 192 189 185 180 175 174 174 175 177 180 183 182 179 178 179 176 171 168 168 172 174 165 155 152 151 149 143 138 140 146 152 159 167 175 184 196 204 207 208 209 209 210 213 203 183 165 165 184 195 188 176 172 165 160 160 160 156 153 154 147 136 122 100 90 84 71
160 167 173 172 172 172 172 176 185 194 196 195 192 185 179 185 191 193 195 194 189 184 179 176 177 179 181 182 185 188 190 191 192 191 186 180 177 173 172 171 165 156 149 147 146 142 138 139 144 154 162 166 171 180 192 204 214 216 214 212 212 212 208 195 177 166 180 193 192 183 179 175 168 165 169 169 168 169 167 161 151 124 105 99 88
166 173 178 178 176 173 173 178 186 196 197 192 190 186 182 190 194 194 196 194 185 179 179 181 184 186 186 184 185 186 189 191 190 187 184 181 179 175 172 174 175 170 163 153 147 143 139 136 137 150 166 172 175 185 201 211 222 225 218 213 211 208 204 201 194 178 179 187 193 190 185 183 182 179 180 180 182 185 178 171 177 170 153 139 130
177 181 179 176 174 175 181 187 189 195 198 191 191 194 190 191 194 195 198 194 185 181 184 188 189 188 186 187 186 185 185 187 187 187 186 184 184 185 185 186 184 181 179 174 165 165 164 152 142 146 166 181 187 195 206 214 225 235 225 215 211 206 200 203 211 200 185 185 191 193 191 191 195 197 199 198 201 209 204 199 199 188 175 165 157
180 180 175 173 174 178 186 190 191 195 198 194 195 200 194 192 193 195 199 195 187 185 187 188 189 186 186 190 190 187 187 191 197 199 199 201 204 207 206 204 204 204 202 197 191 198 213 211 194 175 178 189 195 203 211 212 215 226 226 215 208 203 201 205 215 214 200 192 191 193 197 202 206 211 215 211 212 221 222 213 196 180 173 169 161
175 174 174 175 177 180 185 187 186 187 192 194 201 201 195 193 194 195 199 197 191 188 185 186 189 189 190 195 195 192 193 199 206 207 209 219 224 221 217 217 226 237 236 227 222 221 233 245 241 232 226 215 207 209 215 216 213 210 209 203 198 198 204 209 212 213 210 200 192 193 201 207 211 215 216 213 215 214 196 176 170 170 171 168 161
170 168 172 173 173 175 177 178 175 176 187 195 201 202 196 196 197 195 198 199 193 191 187 185 189 191 193 198 200 201 201 205 209 212 218 226 223 217 218 224 232 238 240 237 235 233 230 243 254 253 254 255 248 237 227 222 218 214 208 201 198 201 209 214 212 211 210 200 192 195 203 207 211 212 206 202 206 203 184 170 164 167 172 172 169
166 168 170 170 169 170 171 172 171 177 192 193 195 205 204 201 201 198 199 199 195 194 192 189 188 189 193 199 203 206 208 210 210 214 222 225 218 215 221 228 231 232 235 236 235 235 235 240 250 258 262 265 266 261 250 236 226 223 221 217 215 214 216 216 213 211 207 197 191 196 201 202 204 202 193 189 190 186 183 178 170 168 173 174 176
160 165 170 172 172 169 167 168 172 181 195 196 198 209 209 203 202 200 201 203 200 198 200 201 202 201 203 206 208 208 209 211 213 215 220 222 219 219 225 230 231 229 230 231 231 234 238 242 247 255 263 268 269 266 261 253 239 231 228 227 224 220 218 217 215 213 207 198 193 194 194 194 197 193 187 188 190 187 184 183 173 166 167 171 176
145 150 158 164 165 163 163 166 172 179 188 194 198 204 202 198 199 201 205 208 208 207 209 212 215 217 217 218 218 217 215 216 218 219 219 220 220 221 224 228 229 229 229 228 228 231 235 240 244 247 252 259 264 266 264 260 253 242 231 224 219 215 214 213 215 216 213 208 204 200 196 195 197 195 190 190 192 189 185 183 175 167 167 175 186
119 124 131 140 147 155 160 165 170 174 181 189 192 188 186 188 195 205 208 208 211 213 215 219 223 225 226 227 229 229 227 225 225 226 225 224 224 223 225 227 228 230 232 231 231 233 235 239 242 242 242 245 252 258 259 258 254 246 236 227 222 222 220 216 215 216 216 213 210 208 206 202 196 192 190 187 185 183 180 180 179 175 199 305 311
96 98 104 112 121 136 149 154 155 158 167 177 176 171 173 177 184 192 190 187 191 196 205 215 220 221 224 229 233 235 235 234 233 232 232 230 230 230 231 231 231 232 234 235 237 238 240 243 244 244 245 246 248 250 251 252 252 249 245 241 239 239 238 233 227 223 220 218 215 213 212 206 196 191 191 188 182 177 175 177 178 185 338 352 360
83 83 87 94 99 106 116 118 116 119 128 129 127 142 157 161 161 154 143 147 156 157 168 188 200 210 217 223 228 232 235 237 237 237 237 236 236 237 236 236 236 236 236 238 239 239 241 243 244 244 245 248 249 249 246 246 247 248 249 248 246 244 243 241 237 234 233 230 223 217 213 208 198 190 188 186 181 175 174 176 183 318 350 5 5
76 75 77 82 87 92 96 97 98 102 103 98 99 106 113 119 131 135 128 134 144 141 141 152 176 219 231 234 238 237 235 236 238 239 240 240 239 239 239 239 240 239 239 239 240 242 246 248 248 248 248 250 251 250 246 243 242 244 246 247 244 241 241 240 236 233 233 234 233 226 215 207 199 188 179 178 179 181 182 190 218 297 4 22 269
70 70 71 72 76 80 83 85 88 92 93 91 91 89 89 94 100 99 100 107 104 95 93 52 294 283 277 272 268 260 249 244 240 239 240 241 242 241 242 243 245 246 247 246 248 250 253 254 254 254 254 255 256 256 252 248 243 241 241 240 237 233 233 235 234 230 223 220 225 224 210 196 190 183 176 176 183 194 208 220 230 232 192 187 210
66 66 66 65 67 69 73 75 75 77 80 82 80 77 76 79 81 81 83 86 82 77 71 50 2 317 296 288 284 278 270 261 252 246 244 243 243 244 245 247 250 252 253 255 256 257 257 257 256 258 260 261 261 260 258 254 248 240 236 233 229 224 223 223 219 213 205 195 192 200 196 183 176 176 177 182 191 202 207 206 200 194 189 188 205
63 63 63 62 62 62 62 64 64 64 66 66 65 64 63 63 63 64 67 67 64 60 56 48 35 14 346 324 308 295 286 280 272 265 258 253 251 250 249 248 249 252 255 256 258 259 259 258 259 261 263 264 264 263 260 254 248 239 232 229 225 218 213 209 201 193 190 184 177 178 178 173 169 172 176 183 193 197 196 193 191 195 200 206 221
60 61 60 58 58 56 56 56 56 55 54 53 52 52 51 50 47 46 47 47 45 41 38 36 32 21 7 358 345 323 307 299 290 281 275 271 266 261 258 256 254 255 258 260 261 262 263 263 264 265 265 266 267 266 261 252 243 234 228 224 219 213 207 203 199 192 183 173 167 167 169 169 170 173 176 181 184 187 195 203 203 204 207 211 220
57 58 58 56 54 52 50 50 50 50 49 47 44 42 41 40 37 35 36 37 34 29 23 23 24 16 5 357 349 335 321 316 310 296 285 280 274 269 263 260 258 258 260 262 263 264 263 264 265 265 266 268 268 265 261 251 239 231 226 220 215 214 211 206 202 196 183 169 164 167 169 169 170 172 174 176 178 187 203 212 210 206 205 205 209
55 55 55 55 54 52 49 47 46 46 46 44 41 38 34 30 27 25 25 25 22 17 14 13 11 7 1 353 347 339 327 319 317 313 300 287 277 271 263 257 256 259 260 261 263 265 265 265 265 266 266 267 265 263 259 251 239 231 225 218 215 216 211 201 196 192 184 173 169 169 167 166 168 171 173 177 186 198 209 209 204 207 208 204 205
51 52 51 52 52 50 47 44 42 40 37 34 32 32 29 24 19 16 14 12 10 8 8 6 1 358 356 348 343 341 332 321 315 313 310 301 289 278 267 259 257 259 260 260 263 266 268 269 268 268 267 266 263 259 254 249 241 232 224 216 214 215 210 199 190 185 181 175 170 169 167 168 170 173 177 183 192 201 202 198 198 204 209 207 211
45 47 49 50 49 46 42 38 35 32 27 21 19 19 18 16 12 9 6 2 1 359 358 355 351 346 343 342 341 338 332 324 314 307 307 307 303 296 284 272 263 259 259 260 261 264 268 270 270 269 269 266 261 254 248 245 240 233 223 213 209 212 209 198 186 178 175 174 172 171 172 172 174 176 179 181 179 179 180 179 180 186 193 231 292
41 43 45 46 44 41 38 33 30 26 21 17 14 12 10 7 5 4 2 359 358 355 352 348 344 338 334 332 332 332 330 325 318 310 303 301 303 304 300 292 279 265 259 260 264 267 269 271 271 271 268 264 256 249 245 241 236 230 221 212 209 207 198 188 181 174 173 173 172 170 170 173 174 172 171 168 162 159 159 157 155 151 68 353 336
49 49 46 43 39 34 31 27 24 22 17 13 11 8 5 2 1 1 359 358 357 355 352 349 344 340 335 329 324 324 324 323 323 321 311 300 300 305 306 303 294 277 266 262 263 265 265 267 270 271 268 263 257 252 246 238 231 225 215 208 206 197 185 179 176 174 173 172 170 167 166 170 171 164 159 156 150 147 148 142 131 80 7 351 340
59 56 50 44 38 32 27 23 21 19 16 15 13 10 6 2 359 358 355 354 354 353 350 346 342 338 334 329 323 319 317 318 321 325 321 311 302 303 310 312 306 291 277 267 261 261 262 263 265 266 266 262 257 250 241 232 226 219 209 202 195 186 180 176 173 173 171 168 165 162 160 162 162 156 150 147 143 143 144 135 98 4 345 341 340
62 58 52 47 40 32 28 26 23 20 18 17 15 12 8 4 1 358 355 352 351 348 344 340 336 332 329 326 323 317 313 313 315 318 321 318 311 305 309 317 314 303 290 275 265 262 264 269 274 273 267 260 254 245 233 224 220 214 205 196 185 179 177 175 173 173 171 167 165 162 158 156 153 147 143 143 144 147 145 124 38 357 347 346 346
59 55 51 46 39 33 31 30 26 22 19 15 11 7 3 359 356 352 350 349 345 341 338 336 332 329 326 323 322 319 314 311 312 314 316 317 315 310 306 310 310 302 294 284 273 269 272 279 283 272 254 245 239 225 210 204 199 193 190 186 176 172 174 175 176 177 174 168 162 157 154 151 146 144 146 149 151 148 129 82 35 14 6 1 356
53 48 42 37 33 30 29 27 21 14 9 3 358 354 350 348 345 341 340 340 337 335 333 329 326 325 322 320 319 318 316 313 312 313 316 317 316 311 305 305 303 295 288 285 283 282 281 274 254 229 209 196 187 179 176 174 170 168 169 168 165 166 169 173 176 174 168 161 155 149 146 145 145 151 156 153 144 127 105 76 38 27 21 10 3
45 40 34 31 28 23 21 18 12 5 0 356 354 353 350 346 340 332 326 325 325 326 322 318 316 314 310 309 311 311 312 312 310 308 309 310 311 307 302 300 296 284 281 284 284 281 270 230 197 186 179 172 164 154 150 152 155 157 158 159 161 165 169 171 169 163 159 157 152 147 148 152 157 159 156 146 134 121 109 93 50 30 16 7 5
32 31 25 21 18 14 10 8 6 6 7 6 4 2 360 356 348 336 327 319 311 309 308 308 308 306 301 299 298 299 302 307 307 302 299 299 301 299 294 292 286 272 269 277 277 263 231 200 187 180 175 170 167 160 153 151 150 149 152 156 160 161 163 163 161 159 157 155 151 152 160 163 160 157 151 141 137 136 136 134 29 360 359 7 7
24 24 17 11 7 4 3 5 10 15 15 9 2 355 351 351 349 343 333 320 313 313 314 313 312 309 305 303 300 296 296 299 299 296 292 292 294 291 286 283 278 268 265 270 265 242 215 199 190 185 179 174 168 162 159 158 154 150 151 153 155 157 158 158 158 155 152 151 152 157 163 161 154 151 151 147 146 154 168 197 293 330 356 11 6
23 18 10 2 358 359 3 9 15 12 5 359 354 349 343 341 341 342 339 331 327 329 331 329 324 318 310 305 302 298 294 292 291 287 284 285 288 287 281 275 270 266 265 262 252 234 218 206 198 191 183 177 170 164 164 167 165 160 158 156 157 159 159 156 155 154 153 155 158 158 158 158 157 156 158 162 168 173 183 221 282 325 348 1 360
20 11 4 357 354 357 3 7 5 0 356 353 352 349 344 339 336 335 336 337 336 336 335 334 331 326 318 307 298 293 291 290 287 284 282 284 285 283 279 273 268 263 257 248 238 229 220 211 203 196 189 184 179 176 176 176 172 169 168 165 160 159 157 154 154 158 161 164 164 161 162 166 166 164 166 172 178 182 198 246 288 328 342 352 355
13 3 359 355 353 357 1 358 355 354 356 356 354 352 350 345 338 335 335 336 338 338 339 340 340 338 332 322 308 298 294 292 288 284 285 288 285 280 277 273 267 258 246 239 234 227 219 211 204 197 192 190 188 184 180 177 174 171 168 163 157 155 154 152 154 158 161 164 165 166 167 167 165 164 164 163 166 181 194 212 304 335 345 354 356
9 359 356 356 356 359 360 356 355 356 358 358 356 353 350 346 344 345 343 338 335 334 335 340 344 345 343 338 329 317 306 297 291 289 291 291 288 283 276 265 255 244 235 232 232 227 219 211 204 199 195 192 189 185 181 177 173 168 162 158 157 157 155 155 159 164 166 167 168 167 164 160 156 151 144 142 153 165 155 139 359 351 359 0 358
360 357 360 359 356 355 355 356 358 1 1 359 355 352 350 349 351 352 346 336 331 329 331 336 340 344 348 349 343 333 323 313 308 307 306 301 293 284 272 258 248 240 234 230 229 226 219 212 205 200 196 191 186 182 178 174 169 165 164 164 163 161 160 162 167 168 168 168 168 164 159 153 145 137 133 141 144 139 128 108 60 20 6 1 1
343 351 356 355 353 352 354 359 6 9 10 9 4 1 4 8 6 358 346 339 338 337 338 342 346 348 352 356 352 341 335 331 325 318 311 303 295 282 267 257 251 245 238 233 230 224 218 211 206 200 194 188 182 179 178 176 173 171 169 167 166 166 167 169 169 168 168 167 165 160 154 144 132 124 119 124 128 127 121 101 62 28 4 356 357
332 339 343 347 354 355 354 6 20 22 20 17 12 8 13 18 17 12 4 358 355 353 350 352 355 354 354 356 356 348 341 338 336 333 325 313 300 282 260 250 249 248 243 238 234 228 221 215 212 208 198 188 182 181 181 180 178 174 169 168 169 171 170 168 167 167 168 165 159 154 148 136 122 103 102 121 128 124 110 81 48 24 8 359 354
329 329 329 333 348 357 1 18 26 19 14 12 8 5 11 20 23 22 14 4 360 358 356 357 0 359 355 354 355 353 348 347 351 355 352 344 331 308 271 252 251 252 247 241 238 234 227 221 219 216 204 190 186 187 184 179 175 172 170 169 170 169 168 167 167 168 168 163 154 149 142 131 119 110 113 121 122 114 97 74 41 24 13 3 359
327 325 321 315 325 354 1 6 10 9 9 9 5 2 9 19 20 15 7 360 358 359 360 2 7 7 2 357 355 351 351 358 5 5 358 353 349 342 312 277 269 267 260 251 241 233 224 214 212 211 204 193 188 186 179 171 168 167 169 170 168 166 169 171 170 169 167 159 150 146 142 132 127 127 126 125 121 112 98 61 29 22 15 2 354
328 325 315 299 292 318 339 345 359 9 13 9 3 2 9 14 10 4 2 2 2 3 5 11 15 14 8 3 359 357 2 14 22 21 16 12 10 7 355 320 291 280 268 252 233 217 205 197 197 199 195 187 183 178 170 163 161 165 169 170 169 169 172 172 170 168 164 155 148 146 141 138 141 141 136 127 118 112 85 34 20 19 14 1 349
329 325 312 290 285 298 318 343 7 19 19 9 1 1 6 10 9 9 10 11 9 8 13 22 25 22 18 17 15 15 23 32 36 35 31 28 26 24 22 15 355 314 252 222 207 193 183 177 179 183 181 175 170 166 160 157 160 166 169 171 173 174 173 170 168 166 159 149 145 144 142 146 152 148 134 114 108 103 46 19 19 15 6 359 354
332 329 314 292 294 301 316 339 3 19 18 8 358 359 6 12 19 25 25 20 16 18 27 39 44 45 46 47 46 46 49 51 51 49 46 44 44 46 50 52 49 62 140 169 179 178 169 159 155 155 154 152 151 150 149 151 158 164 168 172 178 178 174 169 165 162 155 149 148 147 146 152 155 147 130 117 116 85 27 19 21 15 8 7 3
339 338 317 303 315 323 346 357 4 15 16 6 356 360 9 19 31 39 37 33 31 34 43 54 63 67 65 63 65 69 68 66 63 60 58 57 56 58 64 71 79 92 110 122 134 145 147 143 138 135 135 136 139 143 147 153 161 168 173 180 184 181 174 167 163 159 158 159 157 154 155 157 154 146 136 133 123 56 30 23 20 19 18 12 360
343 345 316 304 336 353 14 19 16 16 17 13 4 5 12 27 47 54 53 52 51 52 56 60 65 68 68 66 69 74 76 76 74 71 70 70 70 70 73 79 88 99 107 113 119 124 127 128 128 128 129 133 139 145 150 156 163 170 175 179 178 173 165 161 160 155 154 159 161 160 160 156 150 146 147 149 121 43 30 25 27 33 25 6 352
335 347 317 288 351 14 20 25 23 20 21 23 13 7 15 35 63 73 74 77 75 74 72 69 66 66 67 69 74 80 83 84 82 79 77 77 77 79 81 83 88 95 102 107 112 116 118 120 122 123 126 131 135 138 141 145 149 153 157 161 163 160 154 154 154 149 149 156 161 161 159 153 146 147 157 167 177 28 16 21 33 40 23 359 355
292 347 326 264 305 7 10 18 20 20 23 25 16 11 22 44 74 86 88 90 91 89 85 80 75 74 75 79 84 86 86 86 84 81 78 76 77 81 85 87 89 92 95 99 103 106 109 112 116 119 122 125 126 127 128 129 131 136 140 145 150 149 146 143 140 135 136 142 147 151 153 149 145 152 152 160 211 270 344 16 32 31 8 349 351
245 303 322 245 242 294 340 6 14 17 23 26 23 22 33 50 77 90 92 92 94 93 90 86 84 83 82 85 88 89 88 87 86 83 82 81 81 82 84 85 87 89 90 92 94 97 100 105 110 114 117 118 118 118 118 117 118 124 130 135 136 134 130 127 124 124 127 132 137 143 147 145 150 162 142 93 228 303 348 14 22 13 359 345 343
230 242 260 225 225 249 291 343 3 11 22 31 33 34 44 59 78 91 97 98 94 90 88 87 88 88 88 88 88 88 89 89 89 88 88 86 85 84 83 84 85 86 88 91 94 97 101 105 108 110 111 113 115 116 115 112 112 116 121 124 124 120 117 118 119 120 124 129 134 142 150 157 170 194 201 91 122 14 16 14 350 349 355 350 338
223 225 229 215 217 235 258 295 339 358 23 40 44 42 48 71 90 99 108 111 101 93 93 93 91 89 90 90 88 87 86 87 88 89 89 89 88 89 89 88 88 88 91 95 99 102 103 105 107 110 113 116 119 122 122 117 113 112 113 117 119 119 118 120 121 119 122 127 134 145 161 178 199 216 188 126 134 72 30 15 342 341 350 347 335
218 217 219 213 214 228 244 258 275 297 22 52 53 48 44 64 95 107 115 121 116 108 107 107 104 100 97 94 90 85 83 84 85 87 88 92 95 96 94 93 93 94 97 101 102 102 103 107 110 112 113 114 117 122 124 120 114 110 111 118 125 127 124 123 122 121 125 132 139 152 171 180 167 145 145 142 149 313 337 349 350 346 344 344 338
Height
800 803 805 806 808 810 812 814 816 818 819 820 820 820 821 823 825 828 828 829 829 830 831 831 832 832 833 834 835 836 837 837 838 839 839 840 840 841 841 841 841 841 842 843 843 844 843 843 844 844 845 846 846 847 848 848 849 849 850 850 851 851 852 852 853 855 857 859 860 862 863 863 864 865 866 867 868 869 870 870 871 871 872 872 872
799 802 803 804 805 807 810 813 816 818 819 821 821 820 821 823 826 828 828 829 829 830 831 832 833 834 834 835 836 836 837 837 838 839 840 841 842 842 842 842 843 843 843 844 844 845 845 845 845 845 846 846 846 847 848 848 848 848 848 849 849 850 851 853 854 855 856 858 859 861 862 863 864 864 865 866 867 868 869 870 871 871 872 872 872
799 801 803 804 806 808 810 813 816 819 821 821 821 820 821 823 826 828 828 828 829 830 831 832 833 834 835 836 836 837 837 838 839 840 841 842 842 843 843 844 844 844 845 845 845 845 846 845 846 846 846 846 846 847 847 847 847 847 847 847 848 849 851 852 853 854 855 857 859 860 862 863 864 865 865 866 867 867 868 869 869 870 871 871 872
799 800 802 805 808 810 812 814 816 819 821 821 820 821 822 823 826 828 828 828 828 829 830 831 833 834 835 836 837 837 838 839 840 841 842 843 843 844 844 844 845 845 846 846 846 846 846 846 846 846 846 846 847 847 847 847 847 847 847 847 848 849 851 852 853 854 855 856 858 859 861 862 863 864 865 866 867 867 868 868 868 869 869 870 870
799 800 802 805 807 810 812 815 817 819 820 820 820 821 822 824 826 827 828 828 828 828 829 831 832 834 835 836 837 838 839 840 841 841 842 843 844 844 844 845 845 846 846 846 846 846 845 845 846 846 847 847 847 847 847 847 847 846 846 847 848 850 851 852 853 853 854 855 857 858 860 861 862 863 864 866 866 867 868 868 868 869 869 869 870
798 800 802 804 806 808 811 814 817 818 819 819 820 821 822 824 825 826 827 828 828 828 829 831 832 834 835 836 837 838 839 840 841 841 842 843 844 844 845 845 846 846 847 847 847 846 845 846 846 847 848 848 848 848 848 848 847 847 847 847 848 850 851 851 852 853 854 855 856 857 859 860 861 862 863 864 865 866 867 868 868 869 869 870 870
797 799 802 804 806 808 810 813 815 818 819 820 821 822 823 824 825 826 827 828 828 828 829 830 832 834 835 836 837 838 839 840 840 841 842 842 843 844 845 846 846 847 847 847 847 846 846 847 847 848 848 848 848 849 849 849 848 848 848 848 849 850 850 851 851 852 853 854 855 857 858 859 860 861 862 864 865 865 866 866 867 868 869 869 870
799 799 801 803 806 808 809 812 814 817 819 821 823 824 824 825 825 826 827 828 828 829 829 831 832 834 835 836 837 838 839 839 840 841 841 842 843 844 844 846 846 847 847 847 847 847 847 848 848 848 848 848 848 849 849 849 849 849 849 849 849 850 850 850 851 852 853 854 855 856 857 858 859 861 862 863 864 865 865 866 867 867 868 869 869
800 801 801 803 805 807 808 810 813 816 819 822 823 824 825 825 826 826 827 828 828 829 830 831 832 833 835 835 836 837 838 839 839 840 841 841 842 843 844 845 846 846 846 846 847 847 847 848 848 848 848 848 848 848 848 849 849 849 849 849 849 849 849 850 850 851 852 853 854 855 856 857 858 859 860 862 863 864 865 866 867 868 868 869 869
802 803 804 805 806 808 809 811 813 815 818 821 823 823 824 825 826 826 827 828 829 829 830 831 832 833 834 835 836 836 837 838 839 839 840 841 841 842 843 844 844 845 845 846 846 847 847 848 848 848 848 848 848 848 848 848 848 849 849 849 848 848 849 849 849 850 851 851 853 854 855 856 857 858 859 860 862 863 864 866 867 867 868 868 868
804 805 806 807 808 809 811 813 815 816 817 820 821 821 823 824 825 826 826 827 828 828 829 830 831 832 833 834 835 836 836 837 838 839 839 840 841 841 842 843 843 844 844 845 845 845 846 846 846 847 847 847 847 847 848 848 848 848 848 848 848 848 848 848 849 849 849 850 851 852 853 854 855 856 858 859 861 862 863 864 865 866 866 867 867
805 807 808 809 810 811 813 815 817 818 819 821 821 822 823 824 825 825 825 826 827 828 828 829 829 830 831 833 834 835 835 836 837 838 838 839 840 840 841 842 842 843 843 843 844 844 844 844 845 845 845 845 846 846 846 846 846 847 847 847 848 848 848 848 848 848 849 849 849 850 851 852 853 855 856 858 860 861 863 863 864 865 865 865 865
808 809 810 811 811 813 814 816 818 819 821 822 823 824 824 825 825 826 826 827 827 828 828 829 829 830 831 832 833 833 834 835 836 837 837 838 839 839 840 840 841 841 842 842 842 843 843 843 843 843 843 843 843 843 844 844 844 845 845 845 845 846 846 847 847 848 848 848 848 848 849 851 852 853 855 857 859 861 862 863 863 864 864 864 865
810 812 813 813 814 814 815 816 818 820 821 821 822 824 825 826 827 827 828 829 828 828 828 829 829 830 830 831 832 832 833 834 835 836 837 837 838 838 839 839 839 840 840 841 841 841 841 841 841 841 841 841 841 841 841 841 842 842 843 843 843 844 845 845 845 846 847 847 847 847 848 850 851 852 854 856 858 859 860 861 862 862 863 863 864
813 814 815 815 816 816 816 817 818 820 821 821 822 823 824 826 827 828 828 829 829 828 828 828 829 829 829 830 830 831 832 833 834 835 835 836 837 837 838 838 838 839 839 839 840 840 839 839 839 839 838 838 839 838 839 839 839 840 841 841 841 842 842 843 843 844 845 845 846 847 848 850 851 852 854 855 857 858 859 860 860 861 862 862 862
816 816 817 818 818 818 819 819 820 821 821 821 822 823 825 826 826 827 828 828 828 828 827 828 828 828 828 829 829 830 831 832 832 833 834 834 835 835 835 836 836 836 837 837 837 837 838 837 837 836 836 836 837 837 837 837 837 838 838 839 839 840 840 841 842 843 843 844 846 847 848 849 851 852 853 854 855 857 857 858 859 860 860 861 861
819 819 819 820 820 821 821 821 821 822 822 822 823 824 825 826 827 827 827 827 827 827 827 827 827 827 827 828 828 829 830 831 831 831 832 832 832 832 832 833 833 833 833 834 835 835 835 835 835 834 834 834 834 835 835 835 835 836 836 836 837 838 839 840 841 843 843 843 844 846 847 848 849 851 852 853 854 855 856 857 858 858 859 860 861
822 822 822 823 823 823 823 823 823 823 823 824 825 825 826 826 827 827 826 826 826 826 826 826 826 826 826 827 827 828 828 829 829 829 829 830 830 830 830 830 831 831 831 832 832 833 833 832 832 831 831 831 832 832 832 832 833 833 834 834 835 836 837 839 841 843 842 841 842 844 846 847 848 850 851 852 853 854 855 855 856 857 858 859 859
824 824 825 825 825 825 826 826 826 825 826 826 826 826 826 826 827 827 827 827 827 826 826 826 825 826 826 826 827 827 827 827 827 827 827 827 828 829 829 829 829 829 829 829 830 830 830 830 829 829 828 828 829 829 829 830 830 830 831 832 833 834 836 838 840 842 841 841 842 843 845 846 847 849 850 851 852 853 854 854 855 855 856 857 858
827 827 828 827 828 828 828 828 828 828 828 828 827 827 827 826 827 827 826 827 826 826 825 825 825 825 826 826 826 826 825 825 825 825 825 826 826 827 828 828 828 828 827 827 827 827 827 826 826 826 826 826 826 826 826 827 827 827 828 829 830 832 834 836 838 839 840 841 842 843 844 845 847 848 849 850 851 852 852 853 853 854 854 855 856
829 829 829 829 829 829 828 828 828 828 829 828 827 827 826 826 826 825 825 826 826 825 825 825 826 826 826 826 826 826 825 824 824 824 824 824 825 825 826 826 826 826 825 825 825 825 824 823 823 823 823 823 823 823 823 823 824 824 825 826 828 829 831 834 835 837 838 840 842 843 844 845 847 848 848 849 850 851 851 851 852 853 853 854 855
829 829 829 829 829 828 828 828 828 827 827 827 826 826 825 825 825 824 824 824 824 824 824 824 825 825 825 825 825 825 824 824 823 823 823 823 823 823 823 823 824 824 823 822 822 822 821 821 820 820 821 820 820 821 820 821 821 821 823 825 826 828 831 832 834 835 837 839 841 842 844 845 846 847 848 849 849 850 850 851 851 852 853 853 854
828 827 827 827 827 827 827 827 827 827 827 826 826 825 825 825 824 824 824 824 824 824 824 824 824 824 824 824 824 824 824 823 823 823 822 822 821 821 820 820 820 821 820 820 820 820 819 819 819 819 819 818 818 818 818 818 818 819 821 823 824 826 829 831 833 834 835 837 840 842 843 845 846 846 847 848 848 849 850 851 851 852 853 853 854
828 827 827 826 826 827 827 827 827 827 827 826 826 826 825 825 825 825 825 825 825 825 824 824 824 824 823 823 823 824 824 823 823 822 821 821 820 819 818 818 817 817 817 817 818 817 817 817 817 817 817 817 817 816 816 816 816 816 818 821 822 824 827 829 831 833 835 837 839 841 843 844 845 846 846 847 848 849 850 851 852 852 853 853 853
830 830 829 829 829 829 829 829 828 828 828 827 827 827 826 826 826 826 826 825 825 825 824 824 824 823 823 823 822 822 822 822 822 822 820 819 818 817 817 816 815 815 814 815 815 815 814 814 814 814 814 815 815 814 814 814 815 816 818 819 820 822 825 827 830 832 835 837 839 841 842 844 845 846 846 846 847 849 850 851 852 852 853 853 853
833 833 833 833 833 833 833 832 832 831 831 830 830 830 829 828 828 827 827 826 826 826 825 825 824 823 823 822 821 821 821 820 820 820 819 818 817 816 815 814 814 813 813 812 813 812 812 812 812 812 813 814 813 812 813 815 816 819 821 820 820 821 824 827 830 832 834 836 838 840 842 843 844 845 846 847 848 849 850 851 851 852 852 852 852
836 836 836 836 836 836 836 835 835 834 833 833 832 832 831 830 829 829 828 827 827 826 826 825 824 823 822 821 821 820 819 819 819 818 817 816 815 814 813 813 813 812 812 811 811 811 810 810 810 810 811 814 814 813 812 814 816 818 820 821 821 823 825 828 830 832 834 836 838 840 842 842 843 845 846 848 848 849 850 850 851 851 851 851 851
837 837 837 837 837 837 836 836 836 835 834 834 833 832 831 830 830 829 828 828 827 826 826 825 824 823 822 821 820 819 818 818 818 817 816 815 813 813 812 811 811 811 811 811 810 809 808 807 807 807 809 814 817 815 812 812 813 816 820 822 823 824 827 829 831 833 834 836 839 840 841 842 844 846 847 848 848 848 849 850 850 850 850 850 850
838 838 838 838 837 837 837 836 836 835 834 833 832 832 831 830 829 828 828 828 827 826 825 824 823 823 821 820 820 818 816 816 816 816 815 814 813 812 811 810 810 810 810 810 809 808 806 806 806 806 807 812 817 817 816 815 814 816 819 822 824 826 828 830 832 833 835 836 837 839 841 843 845 847 847 847 847 848 849 849 849 849 849 849 848
839 839 838 838 838 837 837 836 836 835 834 833 832 831 831 830 829 828 827 827 826 825 824 823 822 821 820 819 819 818 816 815 815 814 813 812 812 811 809 809 808 808 808 808 807 806 806 805 806 807 807 809 811 814 817 819 818 816 818 821 824 827 829 831 832 834 835 836 837 840 842 844 845 846 846 846 847 848 848 848 848 848 848 847 847
839 839 839 839 838 838 837 837 836 835 834 833 832 831 830 829 829 828 827 826 825 824 823 822 821 820 819 817 817 816 815 814 813 812 811 810 809 808 808 807 806 806 806 806 806 805 805 805 805 806 807 808 809 810 814 818 819 818 818 821 824 826 828 830 832 834 835 836 838 841 842 843 844 845 846 846 847 847 847 847 847 847 846 846 845
840 840 840 839 839 839 838 837 837 836 835 834 833 831 830 828 827 826 826 825 824 823 821 820 819 818 817 816 815 813 812 811 810 809 808 807 806 806 805 804 804 804 804 804 804 803 803 803 804 805 806 807 809 810 812 814 816 817 818 819 822 825 826 828 831 834 836 838 839 840 841 843 844 844 845 845 846 846 846 846 845 845 845 845 844
841 841 840 840 840 839 839 838 837 837 836 835 833 832 831 829 827 826 824 823 822 822 821 820 818 817 815 814 813 811 810 809 807 806 805 805 804 803 803 802 801 801 801 802 802 802 802 802 803 804 805 806 808 809 810 811 813 816 817 818 820 823 825 827 829 833 836 839 839 840 841 843 843 843 844 844 844 844 844 844 844 844 844 844 843
841 841 841 840 840 839 839 839 838 837 836 835 834 832 831 830 828 826 824 821 820 819 818 817 816 815 813 811 810 809 807 806 805 804 804 803 802 801 800 799 799 799 799 800 799 799 800 801 802 803 805 806 807 808 809 811 812 814 817 818 820 823 824 826 829 832 835 838 840 841 842 842 842 842 843 843 842 842 842 843 843 844 844 843 842
842 842 841 841 840 840 839 839 838 837 836 835 834 832 831 830 828 827 825 823 820 818 817 815 814 813 811 809 808 807 806 805 804 803 802 801 800 799 798 797 797 797 797 798 798 797 798 799 800 802 804 805 806 808 809 810 812 814 816 819 821 822 824 826 829 833 836 838 840 841 841 841 841 841 841 841 841 841 842 843 843 843 843 842 841
843 842 842 841 841 840 840 839 838 837 836 835 834 833 831 830 829 827 826 824 821 819 817 815 813 812 811 809 807 806 805 804 803 802 800 799 798 797 796 795 795 795 795 796 796 797 797 798 799 801 802 804 806 808 810 812 813 814 816 818 820 822 824 826 830 834 836 838 839 840 840 840 840 840 840 840 840 841 841 842 843 842 842 842 841
843 843 842 842 841 841 840 839 838 837 836 835 834 833 831 830 829 827 826 824 822 820 818 816 813 812 810 809 807 806 804 803 801 800 798 797 796 795 794 794 794 794 794 795 796 797 798 799 799 800 801 802 805 808 811 813 815 816 817 818 820 822 824 827 831 834 835 836 837 838 838 838 839 840 840 839 840 840 841 842 842 842 841 841 840
843 843 843 842 842 841 840 839 839 838 837 836 835 834 832 831 829 828 826 824 823 821 819 817 815 812 810 809 807 805 804 802 800 799 797 795 794 793 793 793 793 793 794 794 795 796 797 799 801 802 802 803 805 808 809 811 814 816 817 819 821 823 826 828 831 833 834 835 836 837 837 837 838 839 839 839 839 840 841 841 841 841 840 840 839
843 843 843 842 841 841 840 839 838 838 837 836 835 833 832 831 829 828 826 824 823 821 819 817 815 814 812 810 808 806 804 802 800 799 797 795 794 793 792 792 793 793 793 794 794 795 797 798 800 802 803 803 805 807 809 811 814 816 818 820 822 825 828 830 831 833 834 834 835 835 836 837 838 839 839 839 840 840 840 840 840 840 839 839 839
843 842 842 842 841 840 839 839 838 837 836 836 835 833 832 831 829 827 826 824 822 821 819 818 816 814 813 811 809 807 805 803 801 800 798 797 795 794 793 793 793 794 794 794 794 795 796 797 799 802 803 804 805 806 809 812 814 817 820 821 823 826 829 830 832 833 833 834 834 835 836 837 838 838 839 839 840 840 840 839 839 839 839 839 838
842 842 841 841 840 840 839 838 838 837 836 835 834 833 832 830 829 827 826 824 822 821 820 818 817 816 814 812 810 808 807 805 803 801 800 798 797 795 795 794 794 794 794 794 794 794 795 797 799 801 802 803 805 806 809 812 815 818 821 824 825 827 829 831 832 833 833 834 834 835 836 837 838 838 839 839 840 840 839 839 839 838 838 838 838
842 841 841 840 840 839 838 838 837 837 836 835 834 833 832 830 829 827 826 825 823 822 821 820 819 817 816 814 812 810 808 806 805 803 802 800 798 797 796 796 795 795 795 795 795 795 795 797 799 800 802 804 806 807 809 812 815 818 822 825 826 828 829 831 832 833 833 833 834 835 836 836 837 838 838 839 839 839 839 839 838 838 838 838 838
842 841 840 840 840 839 838 838 837 836 835 835 834 833 832 830 829 828 827 826 824 823 822 821 820 819 817 816 814 813 811 809 807 805 804 802 801 799 798 797 796 796 796 796 797 797 797 799 800 801 802 805 808 810 812 814 817 820 823 826 828 829 830 831 832 832 833 833 834 835 836 836 837 838 838 838 838 839 839 838 838 838 838 838 838
841 841 840 840 840 839 838 838 837 836 836 835 834 833 832 831 830 829 828 827 826 825 824 823 822 820 819 818 816 815 813 812 810 808 807 805 804 802 801 800 799 799 799 799 800 800 800 801 803 803 805 807 811 813 816 818 820 822 824 826 828 830 830 830 831 832 833 833 834 835 836 836 837 838 838 838 838 838 838 838 838 838 838 838 838
841 841 840 840 840 839 838 838 837 836 836 835 834 833 832 831 830 830 829 828 827 827 826 824 823 822 821 820 819 817 816 815 814 812 811 809 808 806 805 804 803 803 803 803 804 804 804 805 807 808 809 812 814 816 818 820 821 823 825 827 828 829 830 831 832 833 833 834 835 835 836 837 837 838 838 838 838 838 838 838 838 838 838 838 838
841 840 840 840 840 839 838 838 837 837 836 835 834 834 833 832 832 831 830 830 829 828 827 826 825 824 823 822 821 820 819 818 817 816 815 814 813 812 811 809 809 808 809 809 809 809 809 810 812 813 814 816 818 819 820 822 823 825 827 828 829 830 831 832 833 833 834 834 835 835 836 837 838 838 838 838 838 838 839 839 838 838 838 839 838
840 840 840 840 840 839 839 838 838 837 836 836 835 834 833 833 832 832 831 831 830 829 829 828 827 826 825 824 823 823 822 821 821 820 819 818 817 817 816 815 814 814 814 814 814 814 814 815 817 818 819 820 821 822 823 825 826 827 828 829 830 831 832 832 833 833 834 835 835 836 836 837 838 838 839 838 838 838 838 838 838 838 839 839 838
840 840 840 840 840 839 839 838 838 837 837 836 835 835 834 834 833 833 832 832 831 831 830 830 829 828 827 827 826 825 825 824 824 823 822 821 821 820 820 819 819 818 818 818 818 819 819 820 821 822 823 823 824 825 826 827 828 828 829 830 831 832 832 833 833 834 835 835 836 836 837 838 839 839 839 839 838 838 838 838 838 839 839 839 838
839 839 839 839 839 839 839 839 838 838 837 837 836 836 835 835 834 834 833 833 833 832 832 831 831 830 830 829 829 828 827 827 826 826 825 825 824 824 823 823 823 822 822 822 822 823 823 824 825 826 826 826 827 828 828 829 829 830 830 831 832 832 833 834 834 835 835 836 836 837 838 839 840 840 839 839 838 838 838 838 839 839 839 839 838
838 839 839 839 839 839 839 839 838 838 838 838 837 836 836 836 835 835 834 834 834 833 833 833 833 832 832 831 831 830 830 829 829 829 828 828 828 827 827 826 826 826 826 826 826 827 827 827 828 828 829 829 829 830 830 831 831 831 832 832 833 834 835 835 836 836 836 837 837 838 839 840 840 840 839 839 838 838 838 839 839 839 839 839 838
837 838 838 838 839 839 839 839 838 838 838 838 837 837 837 837 836 836 835 835 835 834 834 834 834 834 834 833 833 833 832 832 831 831 831 831 831 830 830 829 829 829 829 829 830 830 830 830 831 831 831 831 831 831 832 832 832 833 833 834 835 836 836 837 837 837 838 838 839 840 840 840 840 840 839 839 839 839 839 839 839 839 839 838 838